STARLINK-30808, 58250

Orbit data source: Space-Track

STARLINK-30808, 58250 is a payload satellite owned by SpaceX/Seattle (US) in LEO that was launched on Wed, 08 Nov 2023 UTC via an FALCON 9 launch vehicle from the Air Force Eastern Test Range (AFETR). Payload-class satellites include a variety of spacecraft equipped with specific instruments for various scientific and technological missions. These include communications satellites like Starlink; space stations such as the ISS; scientific satellites like the Hubble; Earth observation satellites from companies like Planet Labs, Umbra, and HawkEye 360; GPS; miniature CubeSats for education and research; and military/defense satellites.

Loading next visibility...
Identifier
58250, 2023-171W
Orbit
LEO
Country
Flag of USUS
Related business
Manufacturer
SpaceX/Seattle
Mission
Operational Commercial Communications
Bus & Motor
STARLINK V2M, Unknown motor
Mass
730 kg wet, ~700 kg dry
Launch date (UTC)
2023-11-08 (3 years ago)
Launch vehicle
FALCON 9
Launch site
Air Force Eastern Test Range (AFETR)
Object type
Payload
Rocket body
Debris
Shape & HBR
Box + 2 Pan, 17.7 m
Radar Cross Section
33.884 m², Large (>1 m²)

Expand to show TLE details & history
Last TLE update: 2 days ago

TLE from 2 days ago
0 STARLINK-30808
1 58250U 23171W   26171.08534355  .00013226  00000-0  47641-3 0  9993
2 58250  43.0003  67.0125 0000382 298.6228  61.4586 15.28458380145399
Epoch: 2026-06-20T02:02Z
TLE epoch observation values (Epoch: 2026-06-20T02:02:53.682Z)
Latitude
Longitude
127.9838°
Altitude
480.07 km
Speed
7.627 km/s
True Right ascension
04h 28m 03s
True Declination
0° 00' 00"
Sunlit
Object was in daylight at epoch
Visualization orbit readout
Latitude
Unknown
Longitude
Unknown
Altitude
Unknown
Speed
Unknown
Apparent Right ascension
Unknown
Apparent Declination
Unknown
Sunlit
N/A
Visualization observer readout
Local Sidereal Time
00:39:30
Azimuth
Unknown
Elevation
Unknown
Doppler factor
Unknown
Orbital elements
Apogee altitude
482.628 km
Perigee altitude
482.104 km
Semi-major axis
6,860.503 km
Eccentricity
0.00004
Inclination
43.0003°
RAAN
67.0125°
Arg. of periapsis
298.6228°
True anomaly
61.46245°
Mean anomaly
61.4586°
Eccentric anomaly
61.46052°
Mean motion
3.81952 °/min
Orbital period
94.25 mins
BSTAR
0.00047641
Loading maneuver chart data...
Computing Atmospheric mass density...
Loading historical data...
Loading historical data...
Loading historical data...
Loading historical data...
Loading historical data...
Loading historical data...
Loading historical data...

Documentation

Showing up to 5 results
|